Regional Weather Roundup
Issued by NWS

Home | Current Version | Previous Version | Graphics & Text | Print | Product List | Glossary Off
Versions: 1 2 3 4 5 6 7 8 9 10 11 12 13 14 15 16 17 18 19 20 21 22 23 24 25 26 27 28 29 30 31 32 33 34 35 36 37 38 39 40 41 42 43 44 45 46 47 48 49 50

000
ASUS43 KMKX 250600
RWRWI

WISCONSIN REGIONAL WEATHER ROUNDUP
NATIONAL WEATHER SERVICE MILWAUKEE/SULLIVAN WI
100 AM CDT WED MAY 25 2016

NOTE: "FAIR" INDICATES FEW OR NO CLOUDS BELOW 12,000 FEET WITH NO
SIGNIFICANT WEATHER AND/OR OBSTRUCTIONS TO VISIBILITY.

WIZ001-002-006>008-014>016-023>028-250700-
NORTHWEST WISCONSIN

CITY           SKY/WX    TMP DP  RH WIND       PRES   REMARKS
SUPERIOR ARPT  FOG       47  47 100 NE12      30.04S VSB 1
ASHLAND        FOG       49  49 100 NE8       30.03R VSB 1/4
6HR MIN TEMP:  48; 6HR MAX TEMP:  62;

HAYWARD        CLEAR     59  55  87 NE5       29.98F
6HR MIN TEMP:  58; 6HR MAX TEMP:  77;

SIREN          CLEAR     60  58  92 NE6       29.96S
CUMBERLAND     CLEAR     61  57  88 E7        29.97R
RICE LAKE      CLEAR     58  55  89 CALM      29.98R
CHETEK         CLEAR     60  59  96 E6        29.97R
LADYSMITH      CLEAR     62  58  88 E5        30.00R
EAU CLAIRE     NOT AVBL
MENOMONIE      CLEAR     60  56  84 CALM      29.94S
NEW RICHMOND   CLEAR     64  53  68 E6        29.94S
OSCEOLA        CLEAR     61  61 100 NE3       29.96S
$$

WIZ003>005-009-010-017-018-250700-
NORTH CENTRAL WISCONSIN

CITY           SKY/WX    TMP DP  RH WIND       PRES   REMARKS
MANITOWISH WTR NOT AVBL
ARBOR VITAE    FOG       57  56  95 CALM      30.01R VSB 3/4
WOODRUFF       FOG       57  56  95 CALM      30.01R VSB 3/4
RHINELANDER    FOG       55  54  96 CALM      30.01S VSB 1/4
6HR MIN TEMP:  51; 6HR MAX TEMP:  75; 6HR PCP:  0.01;

EAGLE RIVER    FOG       55  55 100 CALM      30.01R VSB 1/4
LAND O LAKES   CLOUDY    62  62 100 N5        30.02S FOG
PHILLIPS       CLEAR     56  56 100 CALM      30.00R
TOMAHAWK       CLEAR     51  50  96 CALM      30.01R
MEDFORD        CLEAR     58  57  96 NE6       29.99R
MERRILL        CLEAR     55  54  99 CALM      30.00R
$$

WIZ029-030-035-036-043>047-250700-
CENTRAL WISCONSIN

CITY           SKY/WX    TMP DP  RH WIND       PRES   REMARKS
WAUSAU         CLEAR     64  57  78 CALM      29.97R
6HR MIN TEMP:  64; 6HR MAX TEMP:  80;

MOSINEE        CLEAR     63  57  82 N6        29.98S
MARSHFIELD     CLEAR     62  56  80 NE5       29.96S
6HR MIN TEMP:  61; 6HR MAX TEMP:  79;

STEVENS POINT  CLEAR     55  53  94 CALM      29.97S
WAUPACA        CLEAR     61  56  85 CALM      29.96S
WAUTOMA        CLEAR     57  54  89 CALM      29.96S
6HR MIN TEMP:  57; 6HR MAX TEMP:  82;

WISC RAPIDS    CLEAR     59  55  87 CALM      29.97S
6HR MIN TEMP:  59; 6HR MAX TEMP:  80;

CAMP DOUGLAS   CLEAR     54  54 100 SE1       29.95R FOG
$$

WIZ011>013-019>022-031-037>040-048>050-250700-
NORTHEAST WISCONSIN

CITY           SKY/WX    TMP DP  RH WIND       PRES   REMARKS
ANTIGO         CLEAR     55  54  97 CALM      30.01R
SHAWANO        CLEAR     64  59  83 NE5       29.96S
OCONTO         CLEAR    N/A N/A N/A CALM      29.95S
STURGEON BAY   NOT AVBL
GREEN BAY      CLEAR     62  59  90 VRB5      29.95R
6HR MIN TEMP:  61; 6HR MAX TEMP:  81;

MANITOWOC      NOT AVBL
APPLETON       CLEAR     66  54  63 CALM      29.95R
CLINTONVILLE   CLEAR     61  54  77 CALM      29.96R
OSHKOSH        CLEAR     62  57  83 CALM      29.95S
6HR MIN TEMP:  60; 6HR MAX TEMP:  79;

$$

WIZ032>034-041-042-053>061-250700-
SOUTHWEST WISCONSIN

CITY           SKY/WX    TMP DP  RH WIND       PRES   REMARKS
LA CROSSE      CLEAR     65  59  81 E7        29.94R
6HR MIN TEMP:  65; 6HR MAX TEMP:  83;

SPARTA         CLEAR     54  53  97 CALM      29.96R
VIROQUA        CLEAR     65  57  74 E5        29.96R
BOSCOBEL       PTCLDY    59  57  93 CALM      29.95R FOG
6HR MIN TEMP:  58; 6HR MAX TEMP:  84;

PRAIRIE DU CHI CLEAR     63  60  89 CALM      29.93R
PLATTEVILLE    MOCLDY    69  61  76 SE5       29.95R
$$

WIZ056-057-062-063-064-067-068-250700-
SOUTH CENTRAL WISCONSIN

CITY           SKY/WX    TMP DP  RH WIND       PRES   REMARKS
REEDSBURG      CLEAR     60  58  92 CALM      29.95R
BARABOO/DELLS  CLEAR     59  56  88 CALM      29.95S
LONE ROCK      NOT AVBL
MINERAL POINT  CLEAR     70  59  68 SE5       29.96R
MADISON        CLEAR     63  59  87 CALM      29.95R
6HR MIN TEMP:  62; 6HR MAX TEMP:  81;

MIDDLETON      CLEAR     63  57  82 CALM      29.95S
WATERTOWN      CLEAR     63  63 100 CALM      29.94F
MONROE         CLEAR     68  57  68 E7        29.95S
JANESVILLE     CLEAR     64  63  94 CALM      29.94S
$$

WIZ051-052-058>065-066-070>072-250700-
SOUTHEAST WISCONSIN

CITY           SKY/WX    TMP DP  RH WIND       PRES   REMARKS
MILWAUKEE      CLOUDY    63  52  67 CALM      29.95F
6HR MIN TEMP:  62; 6HR MAX TEMP:  72; 6HR PCP:  0.03;

WAUKESHA       PTCLDY    61  61 100 CALM      29.97S FOG
MILWAUKEE/TIMM PTCLDY    63  57  82 CALM      29.97R
RACINE         CLOUDY    64  51  62 CALM      29.97S
6HR MIN TEMP:  62; 6HR MAX TEMP:  71;

BURLINGTON     CLOUDY    68  59  73 CALM      29.96S
KENOSHA        CLOUDY    64  53  67 CALM      29.96S
6HR MIN TEMP:  62; 6HR MAX TEMP:  82; 6HR PCP: TRACE;

FOND DU LAC    CLEAR     59  57  93 S3        29.95S
6HR MIN TEMP:  58; 6HR MAX TEMP:  79;

SHEBOYGAN      CLEAR     55  53  93 CALM      29.95S FOG
6HR MIN TEMP:  55; 6HR MAX TEMP:  72;

WEST BEND      CLEAR     61  57  88 CALM      29.96S
JUNEAU         CLEAR     64  58  82 CALM      29.97R
$$

LSZ147-162-250700-
LAKE SUPERIOR

STATION/POSITION TIME  TEMP    WIND        PRES    WAVE
                       AIR SEA DIR/SP/G            HT/PER
                 (UTC) (F)     (DEG/KT/KT) (MB)    (FT/S)
W MID LAKE BUOY  0450   42 38   30/ 12/ 14 1018.4R   2/ 4
DEVILS ISLAND    0500   44      50/ 19/ 22 1017.8R
SAXON HARBOR     0540   46     330/  8/ 10 1016.6R
$$

LMZ867-665-643>646-250700-
LAKE MICHIGAN

STATION/POSITION TIME  TEMP    WIND        PRES    WAVE
                       AIR SEA DIR/SP/G            HT/PER
                 (UTC) (F)     (DEG/KT/KT) (MB)    (FT/S)
CHAMBERS ISLAND  0500   55      30/  5/  6 1014.6S
N MID LAKE BUOY  0450   47 44  340/  8/ 12 1014.7R   2/ 5
NORTHPORT PIER   0500   53     310/  3/  6 1014.2F
SISTER BAY       0504   56        CALM       N/A
ALGOMA LAKESHORE 0517             CALM       N/A
KEWAUNEE LAKESHO 0500   59     250/  1/  3 1013.3F
SHEBOYGAN LAKESH 0500   66     260/  5/  6 1014.3F
PORT WASHINGTON  0540   65     260/  3/  5 1014.9F
S MID LAKE BUOY  0450   61 49  150/  6/  8 1014.5F   0
KENOSHA   LAKESH 0500   62        CALM     1014.2F
$$

TC  - TEMPERATURE IN CELSIUS
VSB - VISIBILITY IN STATUTE MILES
WCI - WIND CHILL INDEX
HX  - HEAT INDEX





USA.gov is the U.S. government's official web portal to all federal, state and local government web resources and services.